This demonstration page uses our WeatherBlox Daily Observations layout. Learn more.

Left ArrowRight Arrow

41.55636, -103.73856

Hourly Observations for June 11, 2021

Temp ( °F °C ) Dew Point ( °F °C ) Humidity (%) Winds ( mph kmh ) Pressure ( in mb ) Visibility ( mi km ) Precip ( " mm )
12:58 am 00:58 Mostly Cloudy 65 18.3 22 -5.5 19 19 NNW 21 33 29.82 1010 10 16 N/A
1:58 am 01:58 Clear 60 15.5 24 -4.5 25 25 WNW 14 22 29.84 1011 10 16 N/A
2:58 am 02:58 Clear 57 14 15 -9.3 19 19 NNW 10 17 29.86 1011 10 16 N/A
3:58 am 03:58 Clear 52 11.1 18 -7.7 26 26 NW 9 15 29.88 1012 10 16 N/A
4:58 am 04:58 Clear 49 9.3 18 -8 29 29 NNW 8 13 29.91 1013 10 16 N/A
5:58 am 05:58 Sunny 48 9 18 -7.7 30 30 NW 12 19 29.93 1014 10 16 N/A
6:58 am 06:58 Sunny 52 11.2 24 -4.6 33 33 NNW 10 17 29.98 1015 10 16 N/A
7:58 am 07:58 Sunny 59 14.9 24 -4.5 26 26 NNW 21 33 29.99 1016 10 16 N/A
8:58 am 08:58 Sunny 62 16.4 24 -4.2 24 24 N 18 30 30.00 1016 10 16 N/A
9:58 am 09:58 Sunny 64 17.8 24 -4.4 22 22 N 14 22 30.01 1016 10 16 N/A
10:58 am 10:58 Sunny 67 19.3 23 -5.1 19 19 NNW 13 20 30.02 1017 10 16 N/A
11:58 am 11:58 Sunny 70 21.2 25 -3.9 18 18 NNE 16 26 30.02 1017 10 16 N/A
12:58 pm 12:58 Sunny 71 21.5 25 -4.1 18 18 NNE 10 17 30.02 1017 10 16 N/A
1:58 pm 13:58 Sunny 73 22.7 21 -6.2 14 14 NW 7 11 30.00 1016 10 16 N/A
2:58 pm 14:58 Sunny 73 22.6 20 -6.6 14 14 N N/A 30.00 1016 10 16 N/A
3:58 pm 15:58 Sunny 76 24.7 21 -6.1 12 12 W 3 6 30.00 1016 10 16 N/A
4:58 pm 16:58 Sunny 77 25.1 25 -4 14 14 N N/A 30.00 1016 10 16 N/A
5:58 pm 17:58 Sunny 76 24.7 25 -3.8 15 15 SSE 7 11 29.99 1016 10 16 N/A
6:58 pm 18:58 Sunny 75 23.9 28 -2.5 17 17 S 9 15 29.98 1015 10 16 N/A
7:58 pm 19:58 Sunny 69 20.8 31 -0.5 24 24 SSE 13 20 29.99 1016 10 16 N/A
8:58 pm 20:58 Clear 64 17.6 35 1.7 35 35 S 14 22 30.02 1017 10 16 N/A
9:58 pm 21:58 Clear 61 16.2 35 1.8 38 38 SSE 14 22 30.05 1018 10 16 N/A
10:58 pm 22:58 Clear 58 14.7 35 1.9 42 42 SSE 12 19 30.04 1017 10 16 N/A
11:58 pm 23:58 Clear 63 17.3 30 -1 29 29 S 15 24 30.00 1016 10 16 N/A

Powered by AerisWeather